CW9356 Weather Reports


Display with metric or nautical units.
time (UTC)temp
F
wind
direction
speed
MPH
gust
MPH
rain 1hr
in
rain 24hr
in
rain mn
in
humidity
%
barometer
mb
20260510203632 71 296 0.0 0.0 0.00 0.02 0.01 35 1020.3
20260510202151 70 19 0.0 3.0 0.00 0.02 0.01 35 1020.4
20260510200645 71 313 0.0 2.0 0.00 0.02 0.01 32 1020.5
20260510195220 71 297 0.0 1.0 0.00 0.02 0.01 34 1020.6
20260510193716 70 36 0.0 0.0 0.00 0.02 0.01 35 1020.7
20260510193634 70 36 0.0 0.0 0.00 0.02 0.01 35 1020.7
20260510192127 70 90 0.0 0.0 0.00 0.02 0.01 32 1020.8
20260510190643 70 345 0.0 8.0 0.00 0.02 0.01 34 1021.0
20260510185120 70 86 0.0 0.0 0.00 0.02 0.01 40 1021.2
20260510183736 69 341 0.0 0.0 0.00 0.02 0.01 38 1021.2
20260510183653 69 341 0.0 0.0 0.00 0.02 0.01 38 1021.2
20260510182147 67 17 0.0 1.0 0.00 0.02 0.01 39 1021.2
20260510180646 67 101 0.0 0.0 0.00 0.02 0.01 40 1021.3
20260510175159 66 323 0.0 0.0 0.00 0.02 0.01 41 1021.4
20260510175117 66 323 0.0 0.0 0.00 0.02 0.01 41 1021.4
20260510173633 65 90 0.0 0.0 0.00 0.02 0.01 44 1021.5
20260510172130 65 136 0.0 0.0 0.00 0.02 0.01 46 1021.7
20260510170726 64 54 0.0 0.0 0.00 0.02 0.01 48 1021.8
20260510170644 64 54 0.0 0.0 0.00 0.02 0.01 48 1021.8
20260510165138 63 137 0.0 0.0 0.00 0.02 0.01 50 1021.6
20260510163658 62 115 0.0 0.0 0.00 0.02 0.01 51 1021.6
20260510162129 61 332 0.0 0.0 0.00 0.02 0.01 54 1021.6
20260510160648 60 116 0.0 2.0 0.00 0.02 0.01 52 1021.4
20260510155141 59 124 0.0 0.0 0.00 0.02 0.01 53 1021.4
20260510153616 58 128 0.0 4.0 0.00 0.02 0.01 56 1021.2
20260510152134 57 126 0.0 0.0 0.00 0.02 0.01 62 1021.2
20260510150628 56 119 0.0 0.0 0.00 0.02 0.01 62 1021.1
20260510145147 56 116 0.0 0.0 0.00 0.02 0.01 64 1021.3
20260510143640 55 155 0.0 0.0 0.00 0.02 0.01 65 1021.4
20260510142133 54 165 0.0 0.0 0.00 0.02 0.01 66 1021.3
20260510140712 54 165 0.0 0.0 0.00 0.02 0.01 66 1021.0
20260510135143 54 165 0.0 0.0 0.00 0.02 0.01 66 1020.4
20260510133638 54 59 0.0 0.0 0.00 0.02 0.01 67 1020.2
20260510132115 54 164 0.0 0.0 0.00 0.02 0.01 68 1019.5
20260510130629 53 53 0.0 0.0 0.00 0.02 0.01 68 1019.9
20260510125122 53 94 0.0 0.0 0.00 0.02 0.01 69 1019.4
20260510123642 53 76 0.0 0.0 0.00 0.02 0.01 70 1018.9
20260510122135 53 38 0.0 0.0 0.00 0.02 0.01 73 1018.4
20260510120655 53 39 0.0 0.0 0.00 0.02 0.01 75 1018.4
20260510115127 52 9 0.0 0.0 0.00 0.02 0.01 74 1017.8
20260510113623 52 58 0.0 0.0 0.01 0.02 0.01 76 1017.1
20260510112141 53 44 0.0 0.0 0.01 0.02 0.01 76 1017.3
20260510110615 53 33 0.0 0.0 0.01 0.02 0.01 76 1017.1
20260510105133 54 149 0.0 1.0 0.01 0.02 0.01 77 1016.4
20260510103708 54 37 0.0 0.0 0.00 0.01 0.00 77 1016.2
20260510102118 55 53 0.0 3.0 0.00 0.01 0.00 75 1015.7
20260510100616 56 51 0.0 2.0 0.00 0.01 0.00 74 1016.1
20260510095130 56 24 0.0 1.0 0.00 0.01 0.00 75 1016.1
20260510093628 56 74 0.0 0.0 0.00 0.01 0.00 77 1016.5
20260510092203 56 308 0.0 0.0 0.00 0.01 0.00 77 1016.2
20260510090615 55 321 0.0 0.0 0.00 0.01 0.00 78 1016.2
20260510085114 55 317 0.0 0.0 0.00 0.01 0.00 79 1016.0
20260510083629 54 301 0.0 0.0 0.00 0.01 0.00 79 1015.7
20260510082127 54 325 0.0 0.0 0.00 0.01 0.00 78 1015.2
20260510080723 55 340 0.0 0.0 0.00 0.01 0.00 77 1014.9
20260510075155 55 348 0.0 0.0 0.00 0.01 0.00 77 1014.9
20260510073652 55 350 0.0 0.0 0.00 0.01 0.00 75 1014.9
20260510072124 56 350 0.0 0.0 0.00 0.01 0.00 73 1014.8
20260510070619 57 350 0.0 0.0 0.00 0.01 0.00 72 1014.3
20260510065118 58 350 0.0 0.0 0.00 0.01 0.00 71 1013.8
20260510063633 59 348 0.0 0.0 0.00 0.01 0.00 70 1013.8
20260510062131 59 325 0.0 0.0 0.00 0.01 0.00 68 1014.0
20260510060627 60 342 0.0 0.0 0.00 0.01 0.00 68 1013.4
20260510055124 60 89 0.0 0.0 0.00 0.01 0.00 68 1013.2
20260510053639 60 74 0.0 0.0 0.00 0.01 0.00 70 1012.5
20260510052132 60 272 0.0 0.0 0.00 0.01 0.00 71 1012.9
20260510050631 60 50 0.0 0.0 0.00 0.01 0.00 72 1012.6
20260510045145 60 53 0.0 0.0 0.00 0.01 0.01 72 1012.5
20260510043643 60 73 0.0 0.0 0.00 0.01 0.01 71 1012.3
20260510042116 60 73 0.0 0.0 0.00 0.01 0.01 72 1011.7
20260510040652 60 25 0.0 0.0 0.00 0.01 0.01 73 1012.1
20260510035149 61 25 0.0 0.0 0.00 0.01 0.01 73 1011.8
20260510033723 61 23 0.0 0.0 0.00 0.01 0.01 74 1011.4
20260510032234 61 88 0.0 0.0 0.00 0.01 0.01 74 1011.2
20260510030630 61 89 0.0 0.0 0.00 0.01 0.01 74 1010.9
20260510025143 61 89 0.0 0.0 0.00 0.01 0.01 73 1010.3
20260510023617 62 82 0.0 0.0 0.00 0.01 0.01 71 1010.2
20260510022136 63 82 0.0 0.0 0.00 0.01 0.01 70 1009.6
20260510020632 63 82 0.0 0.0 0.00 0.01 0.01 69 1009.4
20260510015129 65 118 0.0 0.0 0.01 0.01 0.01 68 1009.4
20260510013644 66 117 0.0 1.0 0.01 0.01 0.01 66 1008.8
20260510012116 68 113 0.0 0.0 0.01 0.01 0.01 62 1008.7
20260510010616 70 115 0.0 1.0 0.01 0.01 0.01 58 1009.2
20260510005131 73 327 0.0 4.0 0.00 0.00 0.00 49 1010.5
20260510003630 73 260 0.0 2.0 0.00 0.00 0.00 44 1008.8
20260510002124 74 44 0.0 0.0 0.00 0.00 0.00 45 1007.5
20260510000700 75 47 0.0 0.0 0.00 0.00 0.00 45 1006.6
20260510000617 75 47 0.0 0.0 0.00 0.00 0.00 45 1006.6
20260509235116 76 92 0.0 0.0 0.00 0.00 0.00 45 1006.2
20260509233632 77 61 0.0 0.0 0.00 0.00 0.00 43 1006.3
20260509232210 79 296 0.0 0.0 0.00 0.00 0.00 42 1006.3
20260509232128 79 296 0.0 0.0 0.00 0.00 0.00 42 1006.3
20260509230703 81 132 0.0 0.0 0.00 0.00 0.00 39 1006.0
20260509225116 82 23 0.0 0.0 0.00 0.00 0.00 37 1005.9
20260509223616 82 53 0.0 0.0 0.00 0.00 0.00 38 1006.2
20260509222230 80 93 0.0 0.0 0.00 0.00 0.00 39 1006.6
20260509222127 80 93 0.0 0.0 0.00 0.00 0.00 39 1006.6
20260509220643 80 328 0.0 0.0 0.00 0.00 0.00 34 1006.4
20260509215119 81 49 0.0 0.0 0.00 0.00 0.00 38 1006.2
20260509213635 81 59 0.0 0.0 0.00 0.00 0.00 33 1006.1
20260509212132 82 73 0.0 0.0 0.00 0.00 0.00 37 1006.0
20260509210627 83 84 0.0 0.0 0.00 0.00 0.00 33 1006.2
20260509205120 84 63 0.0 0.0 0.00 0.00 0.00 31 1006.3